Radiation Dose measured at exhaust stack monitor of Fukushima Daiichi Nuclear Power Station
Date,Time,Unit 5 6 shared exhaust cylinders,Wind Direction,Wind Velocity(m/s)
2023/07/24,00:00,3.8,south,5.4
2023/07/24,00:10,3.6,south,5.9
2023/07/24,00:20,3.6,south,6.2
2023/07/24,00:30,3.6,south,5.8
2023/07/24,00:40,3.8,south,4.7
2023/07/24,00:50,3.6,south,4.2
2023/07/24,01:00,3.7,south,4.7
2023/07/24,01:10,3.6,south,5.2
2023/07/24,01:20,3.6,south,4.8
2023/07/24,01:30,3.6,south,4.6
2023/07/24,01:40,3.6,south,4.1
2023/07/24,01:50,3.5,south,3.6
2023/07/24,02:00,3.7,south,3.3
2023/07/24,02:10,3.7,south,3.0
2023/07/24,02:20,3.5,south,2.6
2023/07/24,02:30,3.7,south,2.2
2023/07/24,02:40,3.7,south,2.3
2023/07/24,02:50,3.6,south,1.7
2023/07/24,03:00,3.7,south-southeast,1.4
2023/07/24,03:10,3.7,southeast,0.6
2023/07/24,03:20,3.6,-,CALM
2023/07/24,03:30,3.7,south,0.6
2023/07/24,03:40,3.7,northwest,0.6
2023/07/24,03:50,3.7,north,0.8
2023/07/24,04:00,3.7,north-northeast,0.6
2023/07/24,04:10,3.6,-,CALM
2023/07/24,04:20,3.7,north,0.8
2023/07/24,04:30,3.7,north,0.6
2023/07/24,04:40,3.7,west-northwest,1.5
2023/07/24,04:50,3.6,northwest,2.3
2023/07/24,05:00,3.6,northwest,1.9
2023/07/24,05:10,3.6,northwest,2.0
2023/07/24,05:20,3.6,northwest,1.5
2023/07/24,05:30,3.5,northwest,1.5
2023/07/24,05:40,3.4,northwest,1.4
2023/07/24,05:50,3.5,northwest,2.6
2023/07/24,06:00,3.4,northwest,2.5
2023/07/24,06:10,3.5,northwest,1.9
2023/07/24,06:20,3.7,northwest,1.5
2023/07/24,06:30,3.7,northwest,1.5
2023/07/24,06:40,3.6,north-northwest,1.5
2023/07/24,06:50,3.6,north-northwest,0.9
2023/07/24,07:00,3.6,west-northwest,0.8
2023/07/24,07:10,3.6,-,CALM
2023/07/24,07:20,3.5,-,CALM
2023/07/24,07:30,3.6,east,0.6
2023/07/24,07:40,3.5,east-northeast,1.2
2023/07/24,07:50,3.7,east-southeast,1.2
2023/07/24,08:00,3.7,southeast,1.2
2023/07/24,08:10,3.7,southeast,1.2
2023/07/24,08:20,3.7,southeast,1.2
2023/07/24,08:30,3.6,east-southeast,1.4
2023/07/24,08:40,3.7,southeast,2.0
2023/07/24,08:50,3.6,southeast,1.9
2023/07/24,09:00,3.6,southeast,2.0
2023/07/24,09:10,3.6,east-southeast,1.7
2023/07/24,09:20,3.9,east-southeast,1.7
2023/07/24,09:30,3.5,southeast,1.7
2023/07/24,09:40,3.7,southeast,2.3
2023/07/24,09:50,3.6,southeast,3.8
2023/07/24,10:00,3.6,south-southeast,3.6
2023/07/24,10:10,3.7,south-southeast,5.1
2023/07/24,10:20,3.6,south-southeast,6.0
2023/07/24,10:30,3.7,south-southeast,6.3
2023/07/24,10:40,3.5,south-southeast,5.9
2023/07/24,10:50,3.6,south-southeast,5.2
2023/07/24,11:00,3.7,south-southeast,5.8
2023/07/24,11:10,3.6,south-southeast,7.2
2023/07/24,11:20,3.5,south-southeast,7.2
2023/07/24,11:30,3.6,south-southeast,7.5
2023/07/24,11:40,3.6,south-southeast,7.3
2023/07/24,11:50,3.5,south-southeast,7.8
2023/07/24,12:00,3.6,south-southeast,8.0
2023/07/24,12:10,3.6,south-southeast,7.4
2023/07/24,12:20,3.6,south-southeast,7.6
2023/07/24,12:30,3.7,south-southeast,8.5
2023/07/24,12:40,3.6,south-southeast,7.5
2023/07/24,12:50,3.6,south-southeast,8.0
2023/07/24,13:00,3.5,south-southeast,7.7
2023/07/24,13:10,3.5,south-southeast,10.0
2023/07/24,13:20,3.5,south-southeast,10.2
2023/07/24,13:30,3.7,south-southeast,8.7
2023/07/24,13:40,3.6,south-southeast,9.4
2023/07/24,13:50,3.7,south-southeast,7.5
2023/07/24,14:00,3.5,south-southeast,8.4
2023/07/24,14:10,3.7,south-southeast,8.2
2023/07/24,14:20,3.6,south-southeast,8.9
2023/07/24,14:30,3.7,south-southeast,8.4
2023/07/24,14:40,3.6,south-southeast,7.7
2023/07/24,14:50,3.6,south-southeast,8.3
2023/07/24,15:00,3.6,south-southeast,8.4
2023/07/24,15:10,3.6,south,7.7
2023/07/24,15:20,3.6,south,6.5
2023/07/24,15:30,3.7,south,7.4
2023/07/24,15:40,3.6,south,6.4
2023/07/24,15:50,3.7,south,5.5
2023/07/24,16:00,3.8,south,5.4
2023/07/24,16:10,3.5,south-southeast,6.4
2023/07/24,16:20,3.7,south-southeast,5.3
2023/07/24,16:30,3.6,south-southeast,6.9
2023/07/24,16:40,3.5,south,7.2
2023/07/24,16:50,3.6,south,5.5
2023/07/24,17:00,3.5,south,6.9
2023/07/24,17:10,3.6,south,5.5
2023/07/24,17:20,3.8,south,5.4
2023/07/24,17:30,3.7,south,6.3
2023/07/24,17:40,3.7,south,5.9
2023/07/24,17:50,3.8,south,5.8
2023/07/24,18:00,3.5,south,5.8
2023/07/24,18:10,3.8,south,5.7
2023/07/24,18:20,3.5,south,5.0
2023/07/24,18:30,3.7,south,5.4
2023/07/24,18:40,3.7,south,5.2
2023/07/24,18:50,3.7,south,5.2
2023/07/24,19:00,3.7,south,4.6
2023/07/24,19:10,3.7,south-southwest,5.1
2023/07/24,19:20,3.5,south,5.4
2023/07/24,19:30,3.6,south,4.5
2023/07/24,19:40,3.8,south,4.6
2023/07/24,19:50,3.6,south,4.8
2023/07/24,20:00,3.7,south,4.2
2023/07/24,20:10,3.6,south,4.3
2023/07/24,20:20,3.7,south,4.4
2023/07/24,20:30,3.7,south,4.4
2023/07/24,20:40,3.7,south,3.7
2023/07/24,20:50,3.7,south,3.9
2023/07/24,21:00,3.6,south,4.1
2023/07/24,21:10,3.6,south,4.3
2023/07/24,21:20,3.5,south,4.3
2023/07/24,21:30,3.5,south-southwest,4.1
2023/07/24,21:40,3.7,south-southwest,3.5
2023/07/24,21:50,3.6,south-southwest,3.5
2023/07/24,22:00,3.7,south-southwest,2.9
2023/07/24,22:10,3.7,south-southwest,1.7
2023/07/24,22:20,3.8,west,1.5
2023/07/24,22:30,3.6,-,CALM
2023/07/24,22:40,3.7,-,CALM
2023/07/24,22:50,3.6,west-northwest,0.8
2023/07/24,23:00,3.7,northwest,1.4
2023/07/24,23:10,3.5,north-northwest,0.9
2023/07/24,23:20,3.7,north,0.6
2023/07/24,23:30,3.6,northeast,0.6
2023/07/24,23:40,3.7,-,CALM
2023/07/24,23:50,3.7,east-southeast,0.9
